Oxford, MS

8:40 AM CDT on September 15, 2019 (GMT -0500)
University-Oxford

Weather History for KUOX - July, 2019

Change the Weather History Date:

Sunday, July 14, 2019

  Actual Average Record
Temperature  
Mean Temperature 71 °F -  
Max Temperature 73 °F 91 °F 103 °F (1980)
Min Temperature 69 °F 68 °F 54 °F (1964)
Cooling Degree Days 6    
Growing Degree Days 21 (Base 50)    
Moisture  
Dew Point 70 °F    
Average Humidity 97    
Maximum Humidity 100    
Minimum Humidity 83    
Precipitation  
Precipitation 0.00 in - - ()
Sea Level Pressure  
Sea Level Pressure 30.11 in    
Wind  
Wind Speed 6 mph (ESE)    
Max Wind Speed 15 mph    
Max Gust Speed 23 mph    
Visibility 7 miles    
Events Rain    
Averages and records for this station are not official NWS values.
T = Trace of Precipitation, MM = Missing Value Source: NWS Daily Summary

Daily Weather History Graph

Daily Weather History Graph

Search for Another Location

Airport or City:

Astronomy

Jul. 14, 2019 Rise Set
Actual Time 5:56 AM CDT 8:11 PM CDT
Civil Twilight 5:27 AM CDT 8:40 PM CDT
Nautical Twilight 4:52 AM CDT 9:15 PM CDT
Astronomical Twilight 4:14 AM CDT 9:53 PM CDT
Moon 6:33 PM CDT (7/14) 3:57 AM CDT (7/14)
Length of Visible Light 15h 12m
Length of Day
14h 15m
Waxing Gibbous, 95% of the Moon is Illuminated
Jul 14
Waxing Gibbous
Jul 16
Full
Jul 24
Last Quarter
Jul 31
New
Aug 7
First Quarter

Hourly Weather History & Observations

Time (CDT) Temp. Dew Point Humidity Pressure Visibility Wind Dir Wind Speed Gust Speed Precip Events Conditions
12:15 AM 73.4 °F 68.0 °F 83% 30.09 in 10.0 mi Variable 6.9 mph - N/A   Mostly Cloudy
12:35 AM 73.4 °F 68.0 °F 83% 30.09 in 10.0 mi ESE 4.6 mph - N/A   Mostly Cloudy
12:55 AM 73.4 °F 68.0 °F 83% 30.10 in 10.0 mi Variable 6.9 mph - N/A   Overcast
1:15 AM 73.4 °F 68.0 °F 83% 30.10 in 10.0 mi SE 9.2 mph - N/A   Overcast
1:35 AM 73.4 °F 68.0 °F 83% 30.10 in 10.0 mi SE 6.9 mph - N/A   Overcast
1:55 AM 73.4 °F 68.0 °F 83% 30.11 in 10.0 mi SSE 9.2 mph - N/A   Overcast
2:15 AM 71.6 °F 69.8 °F 94% 30.10 in 5.0 mi East 5.8 mph - N/A   Light Drizzle
2:35 AM 71.6 °F 69.8 °F 94% 30.10 in 10.0 mi East 3.5 mph - N/A   Overcast
2:55 AM 71.6 °F 69.8 °F 94% 30.10 in 10.0 mi Variable 5.8 mph - N/A   Overcast
3:15 AM 71.6 °F 69.8 °F 94% 30.10 in 9.0 mi SE 5.8 mph - N/A   Light Drizzle
3:35 AM 71.6 °F 69.8 °F 94% 30.10 in 9.0 mi Variable 6.9 mph - N/A Rain Light Rain
3:55 AM 71.6 °F 69.8 °F 94% 30.11 in 7.0 mi SE 6.9 mph - N/A   Light Drizzle
4:15 AM 71.6 °F 69.8 °F 94% 30.12 in 9.0 mi SE 6.9 mph - N/A   Light Drizzle
4:35 AM 69.8 °F 69.8 °F 100% 30.11 in 9.0 mi SE 6.9 mph - N/A   Light Drizzle
4:55 AM 69.8 °F 69.8 °F 100% 30.10 in 7.0 mi ESE 5.8 mph - N/A Rain Light Rain
5:15 AM 69.8 °F 69.8 °F 100% 30.10 in 7.0 mi Variable 6.9 mph - N/A   Light Drizzle
5:35 AM 69.8 °F 69.8 °F 100% 30.09 in 9.0 mi ESE 8.1 mph 13.8 mph N/A   Light Drizzle
5:55 AM 69.8 °F 69.8 °F 100% 30.09 in 10.0 mi ESE 6.9 mph 13.8 mph N/A   Overcast
6:15 AM 69.8 °F 69.8 °F 100% 30.09 in 9.0 mi Variable 5.8 mph 11.5 mph N/A   Mostly Cloudy
6:35 AM 69.8 °F 69.8 °F 100% 30.09 in 9.0 mi Variable 3.5 mph - N/A   Clear
6:55 AM 69.8 °F 69.8 °F 100% 30.09 in 9.0 mi ESE 3.5 mph - N/A   Partly Cloudy
7:15 AM 69.8 °F 69.8 °F 100% 30.11 in 10.0 mi Calm Calm - N/A   Mostly Cloudy
7:35 AM 71.6 °F 71.6 °F 100% 30.12 in 9.0 mi SE 5.8 mph - N/A   Overcast
7:55 AM 71.6 °F 71.6 °F 100% 30.12 in 9.0 mi Variable 4.6 mph - N/A   Mostly Cloudy
8:15 AM 71.6 °F 71.6 °F 100% 30.13 in 7.0 mi East 3.5 mph - N/A   Light Drizzle
8:35 AM 71.6 °F 71.6 °F 100% 30.13 in 6.0 mi ESE 5.8 mph - N/A   Light Drizzle
8:55 AM 71.6 °F 71.6 °F 100% 30.13 in 4.0 mi East 6.9 mph - N/A Rain Light Rain
9:35 AM 71.6 °F 71.6 °F 100% 30.15 in 3.0 mi East 5.8 mph - N/A Rain Rain
9:55 AM 73.4 °F 73.4 °F 100% 30.15 in 3.0 mi ESE 6.9 mph - N/A Rain Light Rain
10:15 AM 73.4 °F 73.4 °F 100% 30.18 in 1.8 mi SW 11.5 mph - N/A Rain Heavy Rain
10:35 AM 69.8 °F 69.8 °F 100% 30.18 in 1.0 mi WSW 4.6 mph 12.7 mph N/A Rain Light Rain
11:15 AM 71.6 °F 69.8 °F 94% 30.17 in 6.0 mi South 10.4 mph - N/A Rain Light Rain
11:35 AM 71.6 °F 71.6 °F 100% 30.17 in 10.0 mi Variable 5.8 mph - N/A   Clear
11:55 AM 71.6 °F 71.6 °F 100% 30.16 in 9.0 mi Calm Calm - N/A   Clear
12:15 PM 71.6 °F 71.6 °F 100% 30.16 in 9.0 mi Calm Calm - N/A   Light Drizzle
12:35 PM 71.6 °F 71.6 °F 100% 30.17 in 9.0 mi South 4.6 mph - N/A   Light Drizzle
12:55 PM 71.6 °F 69.8 °F 94% 30.17 in 9.0 mi Variable 4.6 mph - N/A   Light Drizzle
1:15 PM 73.4 °F 69.8 °F 88% 30.16 in 9.0 mi SE 5.8 mph - N/A   Clear
1:35 PM 73.4 °F 69.8 °F 88% 30.16 in 8.0 mi Variable 3.5 mph - N/A   Light Drizzle
1:55 PM 71.6 °F 68.0 °F 88% 30.15 in 5.0 mi Variable 4.6 mph 11.5 mph N/A   Light Drizzle
2:15 PM 71.6 °F 68.0 °F 88% 30.16 in 5.0 mi SE 8.1 mph - N/A Rain Light Rain
2:35 PM 69.8 °F 68.0 °F 94% 30.15 in 4.0 mi Calm Calm - N/A Rain Rain
2:55 PM 69.8 °F 68.0 °F 94% 30.15 in 5.0 mi East 3.5 mph - N/A Rain Light Rain
3:15 PM 69.8 °F 69.8 °F 100% 30.15 in 6.0 mi Variable 3.5 mph - N/A Rain Light Rain
3:35 PM 69.8 °F 69.8 °F 100% 30.14 in 6.0 mi Calm Calm - N/A Rain Light Rain
3:55 PM 69.8 °F 69.8 °F 100% 30.13 in 6.0 mi Variable 5.8 mph - N/A Rain Light Rain
4:15 PM 69.8 °F 69.8 °F 100% 30.12 in 7.0 mi Variable 4.6 mph - N/A   Light Drizzle
4:55 PM 69.8 °F 69.8 °F 100% 30.10 in 7.0 mi East 5.8 mph - N/A   Light Drizzle
5:15 PM 69.8 °F 69.8 °F 100% 30.09 in 7.0 mi East 4.6 mph - N/A   Light Drizzle
5:35 PM 69.8 °F 69.8 °F 100% 30.09 in 5.0 mi East 6.9 mph 12.7 mph N/A Rain Light Rain
5:55 PM 69.8 °F 69.8 °F 100% 30.09 in 7.0 mi East 8.1 mph - N/A   Light Drizzle
6:15 PM 69.8 °F 69.8 °F 100% 30.09 in 7.0 mi East 5.8 mph 12.7 mph N/A   Light Drizzle
6:35 PM 69.8 °F 69.8 °F 100% 30.09 in 7.0 mi East 9.2 mph - N/A   Light Drizzle
6:55 PM 69.8 °F 69.8 °F 100% 30.09 in 8.0 mi East 8.1 mph 13.8 mph N/A   Light Drizzle
7:15 PM 69.8 °F 69.8 °F 100% 30.10 in 6.0 mi East 9.2 mph 15.0 mph N/A Rain Light Rain
7:55 PM 69.8 °F 69.8 °F 100% 30.10 in 4.0 mi East 10.4 mph - N/A Rain Light Rain
8:15 PM 69.8 °F 69.8 °F 100% 30.08 in 7.0 mi East 9.2 mph - N/A   Light Drizzle
8:35 PM 69.8 °F 69.8 °F 100% 30.08 in 6.0 mi East 8.1 mph 15.0 mph N/A   Light Drizzle
8:55 PM 69.8 °F 69.8 °F 100% 30.08 in 8.0 mi East 11.5 mph - N/A Rain Light Rain
9:15 PM 69.8 °F 69.8 °F 100% 30.08 in 6.0 mi East 8.1 mph 18.4 mph N/A Rain Light Rain
9:35 PM 69.8 °F 69.8 °F 100% 30.09 in 4.0 mi East 9.2 mph 16.1 mph N/A Rain Rain
9:55 PM 69.8 °F 69.8 °F 100% 30.09 in 7.0 mi East 10.4 mph - N/A Rain Light Rain
10:15 PM 69.8 °F 69.8 °F 100% 30.08 in 8.0 mi East 10.4 mph 17.3 mph N/A   Light Drizzle
10:35 PM 69.8 °F 69.8 °F 100% 30.08 in 10.0 mi East 8.1 mph 19.6 mph N/A   Overcast
10:55 PM 69.8 °F 69.8 °F 100% 30.07 in 9.0 mi East 11.5 mph 19.6 mph N/A   Light Drizzle
11:15 PM 69.8 °F 69.8 °F 100% 30.06 in 7.0 mi East 15.0 mph 23.0 mph N/A   Light Drizzle
11:35 PM 69.8 °F 69.8 °F 100% 30.06 in 9.0 mi ESE 9.2 mph 23.0 mph N/A   Light Drizzle
11:55 PM 69.8 °F 69.8 °F 100% 30.06 in 10.0 mi ESE 9.2 mph 17.3 mph N/A   Overcast